Precipitable_Water
1.37 1.39 1.32 1.33 1.34 1.44 1.43 1.52 1.52 1.51 1.51 1.51 1.49 1.37 1.24 1.20 1.18 1.23 1.14 1.12 1.00 0.93 0.89 0.88 0.91 0.88 0.87 0.84 0.84 0.79 0.74 0.71 0.72 0.74 0.74 0.70 0.67 0.66 0.67 0.67 0.68 0.67 0.67
1.31 1.41 1.33 1.30 1.36 1.38 1.43 1.48 1.50 1.52 1.54 1.52 1.45 1.38 1.19 1.19 1.14 1.14 1.08 1.08 0.99 0.95 0.89 0.92 0.93 0.90 0.91 0.83 0.80 0.77 0.75 0.75 0.73 0.71 0.69 0.67 0.69 0.69 0.69 0.67 0.67 0.70 0.72
1.23 1.29 1.32 1.31 1.32 1.41 1.44 1.42 1.52 1.55 1.57 1.56 1.48 1.33 1.19 1.11 1.05 0.99 0.97 0.95 0.94 0.91 0.92 0.93 0.96 0.91 0.82 0.89 0.83 0.78 0.75 0.74 0.71 0.70 0.70 0.69 0.70 0.71 0.71 0.70 0.71 0.72 0.73
1.24 1.31 1.31 1.34 1.43 1.43 1.33 1.41 1.50 1.53 1.54 1.49 1.38 1.29 1.22 1.06 0.94 0.95 0.96 0.90 0.87 0.90 0.92 0.94 0.96 0.94 0.92 0.89 0.84 0.80 0.77 0.73 0.72 0.71 0.73 0.74 0.74 0.74 0.73 0.73 0.75 0.76 0.75
1.20 1.27 1.30 1.36 1.37 1.31 1.33 1.44 1.49 1.53 1.49 1.46 1.33 1.28 1.20 0.95 0.89 0.97 0.92 0.89 0.86 0.88 0.93 0.99 1.00 0.92 0.93 0.89 0.83 0.75 0.73 0.71 0.72 0.75 0.79 0.79 0.77 0.77 0.77 0.77 0.76 0.77 0.75
1.21 1.26 1.32 1.36 1.41 1.33 1.36 1.46 1.52 1.56 1.47 1.43 1.28 1.21 1.11 0.96 0.92 0.89 0.96 0.94 0.92 0.91 0.94 0.97 0.96 0.92 0.88 0.90 0.81 0.77 0.74 0.75 0.80 0.83 0.84 0.83 0.81 0.80 0.80 0.79 0.78 0.78 0.75
1.24 1.33 1.35 1.33 1.42 1.32 1.36 1.45 1.51 1.42 1.39 1.39 1.22 1.15 1.06 1.03 0.91 0.89 0.96 0.94 0.94 1.03 1.01 0.89 0.86 0.88 0.86 0.89 0.84 0.78 0.81 0.86 0.88 0.87 0.86 0.86 0.85 0.83 0.82 0.83 0.83 0.85 0.84
1.28 1.36 1.37 1.36 1.34 1.38 1.43 1.42 1.45 1.37 1.41 1.35 1.13 1.09 0.91 0.99 1.01 0.99 0.97 0.92 1.03 1.04 1.01 0.96 0.97 0.96 0.86 0.87 0.82 0.83 0.85 0.90 0.92 0.91 0.90 0.90 0.90 0.89 0.87 0.86 0.89 0.92 0.90
1.33 1.36 1.39 1.39 1.39 1.44 1.46 1.43 1.45 1.37 1.24 1.32 1.22 1.05 0.92 0.87 0.90 1.00 0.96 0.94 0.97 0.97 0.95 1.04 1.08 1.04 1.00 0.97 0.92 0.83 0.84 0.87 0.92 0.94 0.95 0.96 0.96 0.95 0.91 0.91 0.92 0.97 0.97
1.37 1.45 1.47 1.45 1.41 1.42 1.46 1.47 1.48 1.39 1.32 1.22 1.24 1.18 1.10 0.99 0.83 0.80 0.93 0.90 0.95 0.93 0.96 1.03 1.03 1.04 1.06 1.06 1.01 0.95 0.86 0.83 0.85 0.91 1.00 1.05 1.05 1.05 1.02 1.03 1.04 1.08 1.09
1.32 1.42 1.44 1.43 1.41 1.45 1.46 1.47 1.45 1.41 1.37 1.26 1.22 1.17 1.04 1.04 0.99 0.85 0.75 0.84 0.95 1.01 1.02 1.04 1.07 1.02 1.04 1.05 1.08 1.03 0.96 0.95 0.91 0.90 0.94 0.98 1.03 1.10 1.11 1.11 1.13 1.16 1.14
1.21 1.36 1.40 1.42 1.43 1.44 1.43 1.45 1.46 1.38 1.34 1.32 1.26 1.18 1.14 0.98 0.99 0.98 0.90 0.96 0.92 0.97 0.98 0.95 0.96 1.01 1.03 1.06 1.05 1.07 1.08 1.06 1.03 1.03 1.00 0.98 0.99 1.00 1.00 1.03 1.05 1.06 1.06
1.13 1.24 1.35 1.39 1.43 1.46 1.46 1.43 1.42 1.40 1.35 1.29 1.25 1.21 1.21 1.10 1.07 1.06 1.11 1.04 1.00 1.07 1.12 1.15 1.08 1.02 1.00 1.02 1.00 0.97 0.98 1.02 1.03 1.02 1.03 1.05 1.03 1.00 0.98 0.99 1.04 1.09 1.10
1.14 1.25 1.30 1.38 1.45 1.48 1.47 1.45 1.39 1.40 1.37 1.33 1.26 1.22 1.15 1.10 1.09 1.08 1.02 0.98 0.97 1.01 1.09 1.08 1.24 1.22 1.13 1.04 1.00 1.02 1.04 1.05 1.08 1.07 1.06 1.09 1.09 1.08 1.05 1.05 1.09 1.09 1.08
1.12 1.25 1.26 1.39 1.41 1.43 1.44 1.45 1.39 1.36 1.33 1.28 1.29 1.23 1.16 1.13 1.12 1.11 1.12 1.12 1.03 0.90 0.92 1.03 1.08 1.21 1.20 1.20 1.18 1.15 1.12 1.10 1.08 1.08 1.06 1.07 1.10 1.12 1.09 1.08 1.07 1.06 1.04
1.10 1.17 1.22 1.36 1.38 1.42 1.44 1.44 1.38 1.36 1.33 1.32 1.30 1.23 1.17 1.17 1.19 1.17 1.15 1.15 1.15 1.05 0.92 1.07 1.06 1.14 1.21 1.19 1.23 1.21 1.19 1.16 1.14 1.15 1.11 1.08 1.05 1.04 1.01 0.99 0.99 0.99 0.99
1.05 1.10 1.17 1.24 1.33 1.38 1.40 1.36 1.36 1.35 1.29 1.28 1.28 1.16 1.12 1.18 1.14 1.21 1.19 1.11 1.13 1.09 0.98 1.03 1.08 1.08 1.05 1.05 1.10 1.13 1.17 1.17 1.16 1.15 1.16 1.14 1.06 1.01 0.98 0.97 0.97 0.97 0.98
1.02 1.04 1.12 1.14 1.25 1.33 1.38 1.34 1.32 1.32 1.31 1.30 1.24 1.21 1.19 1.21 1.18 1.20 1.20 1.16 1.14 1.12 1.01 0.90 1.00 1.02 1.04 1.04 1.04 1.04 1.04 1.07 1.05 1.08 1.10 1.12 1.09 1.06 1.03 1.00 0.98 0.98 0.99
0.95 1.00 1.05 1.08 1.10 1.18 1.28 1.32 1.34 1.32 1.29 1.26 1.24 1.20 1.18 1.17 1.17 1.17 1.17 1.13 1.09 1.07 0.99 0.88 0.84 0.94 0.92 0.96 0.96 0.99 1.00 1.02 1.05 1.06 1.06 1.07 1.07 1.07 1.06 1.05 1.02 1.03 1.04
0.96 0.99 1.03 1.01 1.02 1.04 1.09 1.16 1.20 1.22 1.24 1.20 1.15 1.10 1.11 1.09 1.02 1.05 1.01 1.00 0.98 0.96 0.95 0.88 0.85 0.88 0.94 1.02 1.07 1.02 1.02 1.12 1.10 1.17 1.17 1.19 1.15 1.13 1.12 1.11 1.12 1.12 1.12
0.95 0.96 0.97 0.97 0.97 0.97 0.98 1.02 1.06 1.07 1.12 1.07 1.16 1.13 1.06 1.04 1.04 1.03 1.02 1.01 1.02 0.99 0.99 0.97 0.97 0.98 1.00 1.03 1.04 1.14 1.11 1.17 1.22 1.21 1.18 1.19 1.18 1.16 1.13 1.13 1.13 1.13 1.12
0.92 0.93 0.92 0.93 0.93 0.94 0.97 1.01 1.02 1.02 1.02 1.02 0.96 1.04 1.09 1.08 1.07 1.06 1.06 1.05 1.06 1.03 1.02 1.01 1.02 1.00 1.02 1.02 1.04 1.02 1.02 0.99 0.95 1.12 1.08 1.06 1.10 1.05 1.03 1.04 1.06 1.05 1.04
0.92 0.91 0.91 0.92 0.93 0.96 0.99 1.03 1.05 1.04 1.03 1.02 1.06 1.06 1.02 1.04 1.06 1.07 1.03 1.03 1.04 1.04 1.05 1.04 0.98 0.96 0.94 0.94 0.95 0.94 0.94 0.90 0.89 0.91 0.94 0.89 0.94 0.90 0.88 0.92 0.88 0.91 0.88
1.03 1.00 0.92 0.90 0.91 0.94 1.00 1.03 1.04 1.02 0.99 0.98 0.97 0.97 0.97 0.97 1.00 1.02 1.00 0.97 0.95 0.95 0.95 0.94 0.91 0.86 0.84 0.81 0.80 0.76 0.74 0.74 0.74 0.71 0.71 0.63 0.68 0.65 0.68 0.67 0.67 0.67 0.65
1.01 1.00 0.98 0.98 0.98 0.99 1.02 1.03 1.01 0.99 0.95 0.93 0.92 0.91 0.89 0.89 0.86 0.89 0.87 0.80 0.73 0.69 0.68 0.66 0.63 0.60 0.58 0.57 0.57 0.56 0.52 0.50 0.49 0.49 0.52 0.49 0.49 0.49 0.49 0.50 0.52 0.51 0.50
0.92 0.94 0.91 0.92 0.93 0.93 0.94 0.93 0.87 0.79 0.71 0.66 0.63 0.60 0.56 0.55 0.55 0.54 0.51 0.47 0.44 0.44 0.45 0.45 0.46 0.47 0.48 0.47 0.45 0.45 0.44 0.41 0.41 0.40 0.44 0.41 0.41 0.40 0.36 0.41 0.42 0.43 0.43
Wind_Speed
18 18 19 19 20 20 22 22 24 23 28 26 25 23 20 18 18 18 18 18 17 16 16 16 15 14 13 12 12 12 12 12 12 12 12 12 11 11 10 10 9 9 9
18 19 19 19 20 21 22 23 24 23 28 28 26 24 21 18 17 18 17 18 18 17 16 16 15 14 13 13 13 13 13 13 12 12 12 12 12 12 11 11 11 11 11
19 19 19 20 20 21 22 22 23 24 28 29 27 23 22 20 18 18 17 18 18 17 16 17 16 15 14 14 14 14 14 14 13 13 13 13 13 13 13 13 13 13 13
20 20 20 20 21 21 22 22 25 26 30 30 27 24 21 19 19 19 18 17 19 18 17 17 16 15 15 15 15 15 15 15 14 14 15 15 15 15 15 15 15 15 15
21 21 20 20 22 22 22 22 25 26 31 28 28 24 20 19 18 18 18 18 18 18 18 18 17 16 16 16 16 16 16 16 16 16 16 16 16 16 16 17 17 17 16
21 21 22 22 21 21 22 21 24 30 29 28 26 23 20 19 18 17 19 18 18 18 18 18 18 17 17 18 18 18 18 18 18 18 18 18 18 18 18 19 19 19 18
20 21 22 22 22 22 22 23 27 27 30 30 27 21 18 18 18 18 18 19 19 19 18 18 18 18 18 19 19 19 19 20 20 20 20 20 20 20 21 21 20 20 19
20 21 22 22 23 24 23 25 29 27 28 29 27 23 19 18 18 18 19 19 21 20 20 20 19 19 20 21 21 22 21 22 22 22 23 23 23 23 23 23 22 23 22
18 19 21 23 25 26 26 29 28 30 29 29 29 26 20 19 20 20 19 19 20 21 20 20 20 19 20 21 22 24 24 24 24 25 25 26 26 26 26 26 26 25 25
15 17 19 21 22 27 29 32 30 30 28 29 28 27 24 20 19 18 20 21 20 21 21 21 22 22 21 22 23 24 25 27 27 27 27 28 29 29 29 29 28 28 28
15 16 18 20 23 26 29 30 31 30 31 30 28 25 24 20 20 17 17 19 21 21 22 22 21 23 24 24 24 25 26 27 28 29 31 31 31 31 32 32 32 32 33
15 15 17 19 21 27 28 30 31 27 29 28 27 25 23 21 18 18 15 17 18 20 22 23 24 25 25 26 26 26 27 28 29 30 31 32 33 33 33 33 33 34 35
13 13 14 15 18 25 27 29 31 29 27 28 27 26 23 21 19 17 15 15 16 17 19 21 22 23 24 25 26 26 26 27 28 29 31 32 34 35 35 36 36 36 35
11 11 10 11 15 22 26 27 31 31 29 28 26 25 24 21 20 19 18 16 16 16 19 20 22 23 24 25 27 27 28 28 29 30 31 32 33 35 36 36 35 35 35
10 10 9 11 14 16 23 26 26 29 29 28 27 25 24 23 22 21 20 20 21 20 20 18 19 24 25 25 25 26 27 29 30 31 32 34 34 32 32 33 33 34 36
8 8 9 11 14 14 18 22 24 26 26 25 24 24 24 24 23 23 23 22 21 22 24 24 24 21 21 23 24 26 29 30 30 31 31 31 33 33 33 34 35 37 38
8 7 8 10 15 18 18 19 21 23 24 25 25 25 24 25 25 24 24 26 26 27 25 25 26 26 27 28 29 29 29 31 32 33 34 34 34 36 37 37 38 40 40
8 7 7 8 12 16 19 20 20 21 21 23 22 23 23 24 26 27 27 27 27 27 27 27 26 26 26 27 29 30 32 34 35 35 36 38 39 38 41 43 44 43 44
8 8 7 7 10 13 15 17 20 20 19 18 21 22 22 23 25 25 26 26 24 25 26 26 26 28 28 29 30 31 32 32 33 34 35 35 36 39 40 39 40 43 45
10 9 8 7 8 10 12 13 15 17 19 19 19 20 20 21 21 21 21 22 24 24 26 27 27 27 28 28 29 29 30 30 31 32 33 32 30 32 35 37 39 41 42
10 9 9 9 9 10 11 13 13 13 17 17 18 19 17 16 16 18 20 21 22 24 25 25 26 27 29 30 30 29 29 28 27 29 31 32 34 35 37 39 40 41 43
12 12 10 11 11 11 12 13 14 13 13 14 15 15 16 16 18 19 19 21 23 26 27 28 30 30 29 29 31 33 34 33 35 35 37 37 37 38 39 41 43 43 44
14 13 13 13 13 13 14 15 15 15 16 16 16 18 19 21 22 23 24 23 24 25 27 29 30 31 32 34 36 37 37 38 39 41 42 42 43 44 45 45 46 46 48
13 15 15 15 15 15 15 16 16 17 17 17 18 20 21 22 24 25 26 26 27 27 28 29 30 32 33 35 36 37 38 39 39 40 41 41 42 43 44 45 45 46 48
14 14 15 16 16 16 16 17 18 18 18 18 18 19 21 22 23 24 25 26 27 28 28 28 29 31 32 34 35 37 38 39 39 40 41 42 43 44 45 45 46 47 47
16 15 15 15 16 17 18 19 20 21 20 20 20 20 20 21 22 23 23 24 25 26 27 28 29 30 31 32 33 34 35 36 37 38 40 40 41 41 42 42 42 44 45
Wind_Direction
237 236 237 237 238 230 226 225 227 229 218 211 212 212 214 219 215 214 217 218 218 214 214 215 216 218 219 223 220 217 212 212 214 214 213 213 216 218 224 231 239 247 254
240 239 239 240 231 230 229 231 230 224 211 210 210 212 212 215 212 214 218 217 214 214 217 216 218 218 222 223 220 216 215 216 217 216 216 218 221 227 234 240 246 253 259
242 241 241 238 234 231 230 231 225 218 210 207 207 210 215 216 218 214 217 214 213 215 218 218 218 221 224 226 221 220 220 221 221 222 223 226 232 237 243 247 252 258 262
243 241 241 238 232 232 234 230 224 219 212 207 205 207 211 215 218 214 215 214 214 216 217 218 220 224 227 227 224 222 223 224 225 228 231 236 240 245 249 252 256 260 264
243 240 240 237 234 234 232 231 221 211 195 201 200 206 211 215 213 213 212 212 214 217 221 223 224 230 233 228 225 225 227 229 232 235 239 243 247 251 254 257 259 262 265
243 241 238 240 233 232 228 229 212 197 201 199 199 204 210 210 211 212 212 215 219 222 223 225 229 234 234 227 228 230 232 235 238 242 245 248 251 255 258 260 262 263 265
243 240 238 235 233 232 230 220 208 201 198 200 200 201 205 208 212 216 220 223 224 225 226 228 232 236 232 232 233 235 237 240 244 246 249 252 256 259 261 263 265 264 263
243 240 238 234 235 228 224 212 204 206 202 205 205 204 209 216 218 222 227 231 227 229 231 232 235 239 237 238 238 239 242 245 248 251 253 256 259 261 263 263 263 263 262
241 241 237 237 235 232 220 212 212 205 210 210 207 211 214 221 222 230 233 234 231 232 234 233 238 241 239 240 244 244 246 249 252 255 257 260 262 263 264 264 263 265 263
238 239 241 237 234 227 223 210 211 209 208 209 210 214 219 223 227 234 236 235 234 234 237 240 243 244 244 246 249 249 250 254 256 258 260 263 264 264 264 264 264 264 264
239 246 240 241 239 224 215 211 208 214 213 211 213 215 219 224 227 230 232 233 234 239 241 243 247 246 248 251 253 253 255 257 259 262 264 265 266 267 266 265 265 266 266
242 248 244 249 243 217 211 207 206 208 209 208 211 216 218 221 224 228 233 233 236 243 246 248 249 251 253 254 255 256 256 259 264 266 266 267 266 266 266 266 267 267 267
244 248 249 253 223 208 205 208 206 210 208 211 214 216 219 221 224 227 229 236 244 247 249 249 252 252 253 256 256 258 260 264 266 268 269 268 269 268 266 266 267 268 266
245 243 244 227 206 204 209 208 212 211 210 211 214 215 218 222 225 231 237 243 248 254 255 254 255 255 258 258 258 260 262 264 269 272 273 272 271 269 267 267 267 266 266
241 237 236 213 206 207 209 203 209 207 210 213 218 220 222 229 234 238 242 249 257 256 258 260 264 260 260 261 260 261 263 266 272 275 275 274 272 269 267 265 267 267 268
233 236 228 222 209 200 197 201 200 203 209 214 218 223 229 234 237 242 247 252 255 258 261 262 261 263 262 262 263 266 269 270 272 276 277 279 270 269 268 269 269 270 271
236 234 231 224 211 206 204 202 204 208 214 223 227 229 232 239 241 246 250 254 257 260 264 263 261 264 265 266 268 272 272 274 275 276 277 276 275 271 270 271 271 272 274
232 230 221 214 213 211 208 209 208 213 224 226 229 228 234 239 245 249 254 256 258 258 257 262 263 264 267 271 272 274 275 276 276 278 278 277 276 273 273 272 273 273 275
225 224 219 214 207 202 204 211 216 219 225 226 227 231 239 244 250 251 255 256 254 259 259 261 264 267 271 274 275 277 278 279 279 280 280 280 274 274 276 277 276 277 277
221 219 213 199 190 197 203 207 213 220 225 229 231 233 242 245 247 252 253 254 257 259 260 263 266 269 272 275 276 278 279 280 281 282 282 283 282 281 280 279 280 280 281
222 219 214 210 209 209 214 218 221 226 227 229 233 241 244 243 249 254 256 259 262 262 264 266 269 271 274 276 277 280 281 285 285 284 284 283 284 284 284 284 284 284 284
227 226 224 223 225 227 229 227 226 227 228 231 238 241 238 253 258 262 262 266 269 268 269 271 273 274 276 278 280 281 283 284 282 283 284 285 285 284 286 286 285 286 287
230 232 232 232 234 238 238 234 233 235 238 242 247 251 258 263 266 267 267 270 273 275 275 275 276 277 278 281 282 282 283 283 283 285 285 283 284 283 284 285 286 286 287
233 237 237 237 240 244 239 239 240 241 245 251 257 260 264 267 269 269 268 272 275 278 278 278 278 279 282 284 284 284 285 285 285 287 288 285 287 286 286 286 288 288 289
241 240 239 239 240 243 246 244 244 247 250 256 262 267 268 272 274 272 271 273 275 277 280 281 281 284 286 288 288 286 287 286 286 287 291 288 289 288 288 288 289 290 290
239 241 238 243 245 248 250 249 250 252 254 259 263 269 274 275 277 276 274 275 277 279 280 281 283 286 289 291 293 292 291 290 289 289 292 291 292 291 290 291 291 293 293